Location: Prague
(50.0830°N, 14.4670°E)
Time: 00:50:27
(UTC+01:00)

KAITUO 1B - Visible Passes

Search period start: 07 December 2021 00:00
Search period end: 17 December 2021 00:00
Orbit: 490 x 506 km, 97.4° (Epoch: 06 December)

Date Brightness Start Highest point End Pass type
(mag) Time Alt. Az. Time Alt. Az. Time Alt. Az.
07 Dec ? 06:24:28 10° NNE 06:28:07 51° E 06:31:43 10° S visible
07 Dec ? 17:06:26 10° SE 17:09:57 43° ENE 17:13:31 10° N visible
07 Dec ? 18:41:20 10° SW 18:43:52 17° W 18:46:26 10° NW visible
08 Dec ? 06:04:26 10° NNE 06:07:46 30° E 06:11:04 10° SSE visible
08 Dec ? 16:46:38 10° SE 16:49:48 27° ENE 16:52:59 10° N visible
08 Dec ? 18:20:14 10° SSW 18:23:27 28° W 18:26:43 10° NW visible
09 Dec ? 05:44:39 10° NE 05:47:21 19° E 05:50:02 10° SE visible
09 Dec ? 17:59:31 10° S 18:03:05 46° W 18:06:43 10° NNW visible
10 Dec ? 05:25:28 10° ENE 05:26:53 12° E 05:28:17 10° ESE visible
10 Dec ? 06:57:21 10° N 07:01:02 67° WNW 07:04:41 10° SSW visible
10 Dec ? 17:39:04 10° S 17:42:47 80° WSW 17:46:32 10° NNW visible
11 Dec ? 06:37:03 10° NNE 06:40:46 72° ESE 06:44:25 10° S visible
11 Dec ? 17:18:52 10° SSE 17:22:31 60° ENE 17:26:13 10° N visible
11 Dec ? 18:54:48 10° WSW 18:56:36 13° W 18:58:26 10° WNW visible
12 Dec ? 06:16:53 10° NNE 06:20:25 41° E 06:23:55 10° S visible
12 Dec ? 16:58:53 10° SE 17:02:18 36° ENE 17:05:45 10° N visible
12 Dec ? 18:33:16 10° SW 18:36:08 21° W 18:39:01 10° NW visible
13 Dec ? 05:56:53 10° NE 06:00:01 25° E 06:03:06 10° SSE visible
13 Dec ? 16:39:09 10° ESE 16:42:08 23° ENE 16:45:07 10° NNE visible
13 Dec ? 18:12:18 10° SSW 18:15:42 33° W 18:19:07 10° NNW visible
14 Dec ? 05:37:13 10° NE 05:39:32 16° E 05:41:51 10° SE visible
14 Dec ? 07:09:57 10° N 07:13:31 48° WNW 07:17:03 10° SW visible
14 Dec ? 17:51:40 10° S 17:55:19 57° W 17:59:01 10° NNW visible
15 Dec ? 06:49:33 10° NNE 06:53:15 82° WNW 06:56:55 10° SSW visible
15 Dec ? 17:31:16 10° SSE 17:34:59 84° ENE 17:38:44 10° NNW visible
16 Dec ? 06:29:16 10° NNE 06:32:55 58° E 06:36:32 10° S visible
16 Dec ? 17:11:07 10° SSE 17:14:42 49° ENE 17:18:19 10° N visible
16 Dec ? 18:46:22 10° SW 18:48:41 16° W 18:51:01 10° NW visible
